Lid_Strength_Index
7 7 7 7 6 6 5 5 5 5 5 5 5 5 5 5 4 3 4 2 3 5 5 4 4 5 5 5 7 5 6 6 7 10 10 10 10 9 9 8 9 10 10 10 9 11 11 4 5 8 5 4 4 4
7 6 6 6 6 5 4 5 5 5 5 4 5 4 4 4 4 3 3 1 1 4 5 3 3 2 3 3 4 5 6 7 6 9 8 8 11 8 9 11 7 10 8 9 8 8 6 4 4 3 3 4 4 4
6 6 6 5 5 5 4 4 5 4 5 5 5 4 4 3 3 3 2 2 3 5 5 4 5 2 2 2 2 6 4 4 5 4 7 8 11 8 11 9 8 7 6 8 8 6 6 4 4 3 3 4 3 3
6 6 5 5 5 4 4 4 4 4 5 5 4 4 4 3 2 2 2 1 2 4 8 6 2 3 1 1 2 3 3 2 3 4 8 9 10 7 9 8 8 7 7 7 7 7 6 5 4 4 4 3 3 3
5 5 5 5 5 5 5 4 4 4 4 4 4 3 3 2 2 2 1 1 2 5 7 6 3 2 2 1 2 2 3 4 5 8 8 10 8 8 7 7 8 6 7 8 8 7 6 5 4 3 4 4 3 4
5 5 5 5 5 5 4 4 4 4 4 4 3 3 2 2 2 2 4 2 1 2 7 9 3 3 2 2 2 3 3 3 5 6 6 6 5 8 11 11 6 5 5 5 6 5 5 4 3 3 4 3 3 3
5 5 5 4 4 4 5 5 4 4 4 3 3 2 2 2 2 4 5 3 2 2 6 8 7 5 3 3 3 3 3 4 5 6 7 6 6 6 10 11 6 5 5 4 4 4 6 4 5 3 3 3 3 3
5 4 4 4 4 5 4 4 4 4 4 3 3 2 2 2 3 4 2 3 3 5 5 9 7 7 3 6 7 4 6 5 6 6 6 8 7 7 11 6 5 5 4 5 4 4 4 3 3 3 3 3 4 4
4 4 4 4 4 4 4 4 4 4 4 3 2 2 2 3 4 3 1 2 1 4 7 7 9 11 4 6 5 6 5 10 5 9 8 8 10 12 8 6 5 5 5 5 4 4 4 4 4 4 4 4 4 4
4 3 3 3 3 3 3 4 4 3 3 3 3 4 6 3 1 1 3 5 5 4 4 7 5 8 4 7 8 8 7 9 11 9 7 10 10 6 5 4 4 4 4 4 5 5 5 5 4 4 4 3 3 3
4 4 3 3 3 3 3 3 3 3 3 3 5 6 3 2 2 4 7 8 7 8 6 6 6 8 4 8 8 8 10 9 12 10 10 11 11 7 5 4 3 3 3 3 3 3 3 3 3 4 3 3 3 3
4 3 3 3 3 3 3 3 3 3 3 4 4 3 3 4 6 8 8 7 8 9 7 8 7 6 6 4 7 8 10 8 12 7 11 12 8 6 5 5 4 3 3 3 2 3 3 3 2 3 3 3 3 2
4 4 4 4 4 3 3 3 3 3 3 2 4 6 6 6 12 11 12 10 10 8 7 6 8 6 5 5 8 8 10 10 7 10 11 9 7 6 5 5 4 3 3 3 3 2 3 3 2 2 3 2 2 2
4 4 4 4 3 3 3 3 3 3 4 6 8 12 9 10 8 8 8 7 6 6 6 6 7 7 6 8 8 10 7 7 11 12 13 9 7 6 5 4 4 4 3 3 3 2 3 3 3 2 2 2 2 3
4 4 3 3 3 3 3 3 2 2 5 7 7 11 9 6 5 5 5 5 4 4 6 7 7 7 8 9 7 8 10 12 11 13 10 7 5 5 5 4 4 4 4 3 3 3 3 2 3 3 2 2 2 2
3 3 3 3 3 3 3 2 2 2 4 6 8 8 6 7 6 5 5 6 5 6 6 6 9 10 10 9 10 11 11 13 10 9 7 6 6 6 5 4 4 4 3 3 3 3 2 3 3 3 2 2 2 2
4 4 3 3 3 3 2 2 3 5 5 7 7 5 5 6 6 6 5 5 4 6 9 8 11 11 8 10 10 7 10 9 7 7 5 5 6 5 4 4 4 3 3 3 3 3 3 2 2 2 3 3 2 2
3 3 3 3 2 2 2 2 4 5 7 5 7 5 4 4 5 5 4 4 5 7 7 9 7 10 10 11 10 7 6 5 5 5 4 4 4 4 4 4 4 4 3 3 3 3 2 2 3 3 3 2 2 2
3 2 3 2 2 3 4 4 3 7 6 4 4 4 4 4 4 4 4 4 3 4 6 7 9 9 7 5 6 5 5 5 5 4 4 3 3 3 3 3 3 3 3 3 3 3 2 2 2 2 2 2 3 2
3 2 2 2 2 4 6 5 2 5 6 5 4 5 5 5 3 4 4 4 4 5 7 8 8 5 5 5 4 4 4 3 4 5 5 3 3 3 3 3 3 3 3 3 3 5 2 2 1 1 1 2 2 2
2 1 1 1 2 2 5 5 6 5 5 6 5 5 6 4 5 5 5 3 6 6 7 5 5 4 2 2 2 3 3 4 5 4 4 5 3 3 3 2 2 2 3 2 2 3 4 3 2 2 1 1 1 1
1 1 2 2 3 4 4 3 5 4 5 5 5 5 6 7 6 6 4 6 6 5 4 4 4 3 3 3 3 2 2 2 2 3 5 4 4 3 3 3 3 3 3 2 2 3 2 2 2 1 1 1 2 1
1 2 2 4 5 7 6 2 6 5 8 6 5 7 7 7 5 3 7 5 4 2 3 3 3 2 3 2 2 2 2 3 3 3 3 3 2 2 2 2 2 3 3 3 2 2 2 5 2 2 1 2 2 2
1 3 5 6 6 8 4 6 5 6 6 7 8 9 7 6 4 6 8 6 4 2 3 3 3 4 3 3 3 3 3 2 3 2 2 2 3 3 2 2 2 2 2 2 2 1 1 1 5 2 2 2 2 2
7 7 6 10 6 7 8 8 8 8 9 8 9 8 7 5 8 8 8 6 4 4 3 3 2 3 4 4 4 4 2 3 3 4 3 2 3 2 3 2 2 2 1 2 2 2 3 2 2 2 2 3 2 2
10 6 9 7 7 8 8 10 10 9 8 9 8 7 7 9 11 10 7 6 5 4 4 4 4 4 4 4 4 4 4 2 3 4 3 2 2 3 3 3 3 3 1 1 2 3 3 2 2 2 2 3 5 2
10 8 5 3 5 6 7 7 7 7 9 10 9 9 9 12 11 8 5 4 5 3 3 3 3 3 4 4 3 2 1 1 1 2 1 1 1 1 2 3 3 2 1 1 2 2 2 3 3 3 3 2 2 2
6 6 8 6 7 6 9 9 9 9 9 7 8 10 11 10 10 6 5 3 3 3 3 3 2 2 3 3 2 2 1 1 1 1 1 1 1 0 0 0 0 7 1 1 1 0 1 1 1 2 2 2 2 1
7 6 7 8 8 9 9 9 8 7 7 8 10 10 8 6 4 4 3 2 1 2 3 4 3 2 3 4 3 4 3 2 3 4 4 3 3 2 1 0 0 0 0 0 8 4 1 1 1 1 1 1 1 0
8 7 8 8 9 9 7 6 8 6 6 6 6 5 5 5 3 2 2 2 2 3 2 2 2 3 4 4 5 4 3 2 2 2 3 3 2 1 1 1 1 1 1 1 1 1 5 2 3 1 1 1 1 1
6 7 9 8 9 7 7 5 5 5 5 5 4 6 6 5 3 1 1 1 2 2 2 3 3 3 3 3 3 3 3 1 1 1 1 1 1 1 0 0 0 0 0 0 1 1 1 1 1 2 2 2 2 2
7 8 9 10 9 6 5 6 6 6 6 6 6 4 4 5 5 3 1 1 3 3 5 2 2 2 1 1 1 0 4 1 2 2 2 2 1 1 1 0 0 1 1 1 1 1 1 2 2 2 2 2 2 2
8 8 8 8 8 8 6 6 6 6 6 7 6 5 4 5 6 3 0 0 1 1 1 1 1 1 0 1 1 2 3 3 6 9 9 9 9 6 2 2 2 2 3 3 3 3 4 3 3 3 3 3 2 2